Hourly Data Report for February 16, 2005

TORONTO CITY
ONTARIO

43°40'00.000" N
79°24'00.000" W
112.50 m
6158355
71508
XTO

Download Data

Hourly Data (February 2005)
Hourly Data Report for February 16, 2005
TIME
LST
Temp Definition
°C
Dew Point Definition
°C
Rel Hum Definition
%
Precip. Amount Definition
mm

Wind Dir Definition
10's deg

Wind Spd Definition
km/h
Visibility Definition
km
Stn Press Definition
kPa
Hmdx Definition


Wind Chill Definition


Weather Definition


00:00 2.9 2.1 94   LegendMM LegendMM   99.69     LegendNANA
01:00 2.1 1.4 95   LegendMM LegendMM   99.69     LegendNANA
02:00 1.7 1.2 96   LegendMM LegendMM   99.65     LegendNANA
03:00 1.2 0.8 97   LegendMM LegendMM   99.55     LegendNANA
04:00 1.0 0.7 98   LegendMM LegendMM   99.52     LegendNANA
05:00 0.8 0.3 96   LegendMM LegendMM   99.53     LegendNANA
06:00 0.6 0.0 96   LegendMM LegendMM   99.54     LegendNANA
07:00 0.2 -0.8 93   LegendMM LegendMM   99.55     LegendNANA
08:00 -0.4 -1.1 95   LegendMM LegendMM   99.62     LegendNANA
09:00 0.0 -1.1 92   LegendMM LegendMM   99.62     LegendNANA
10:00 0.7 -1.1 88   LegendMM LegendMM   99.65     LegendNANA
11:00 0.7 -2.9 77   LegendMM LegendMM   99.69     LegendNANA
12:00 1.6 -2.8 73   LegendMM LegendMM   99.72     LegendNANA
13:00 1.2 -3.6 70   LegendMM LegendMM   99.71     LegendNANA
14:00 0.1 -3.2 78   LegendMM LegendMM   99.77     LegendNANA
15:00 0.6 -5.0 66   LegendMM LegendMM   99.78     LegendNANA
16:00 0.0 -5.5 66   LegendMM LegendMM   99.85     LegendNANA
17:00 -0.2 -5.8 66   LegendMM LegendMM   99.91     LegendNANA
18:00 -0.8 -5.7 69   LegendMM LegendMM   99.96     LegendNANA
19:00 -1.0 -5.7 70   LegendMM LegendMM   100.03     LegendNANA
20:00 -1.1 -5.9 70   LegendMM LegendMM   100.03     LegendNANA
21:00 -1.1 -5.3 73   LegendMM LegendMM   100.03     LegendNANA
22:00 -1.3 -6.0 70   LegendMM LegendMM   100.02     LegendNANA
23:00 -1.8 -6.3 71   LegendMM LegendMM   100.00     LegendNANA

Notes on Data Quality.

Legend

  • E = Estimated
  • M = Missing
  • NA = Not Available*
  • [empty] = Indicates an unobserved value
Date modified: